TimeCET,TemperatureF,Dew PointF,Humidity,Sea Level PressureIn,VisibilityMPH,Wind Direction,Wind SpeedMPH,Gust SpeedMPH,PrecipitationIn,Events,Conditions,WindDirDegrees,DateUTC
6:01 AM,64.4,60.8,88,29.92,6.2,SSE,18.4,-,N/A,Rain,Light Rain,150,2012-11-18 05:01:00
6:09 AM,64.4,60.8,88,29.89,6.2,SSE,17.3,-,N/A,Rain,Light Rain,150,2012-11-18 05:09:00
6:50 AM,64.4,59.0,83,29.89,5.0,South,12.7,-,N/A,Rain-Thunderstorm,Rain,180,2012-11-18 05:50:00
7:50 AM,64.4,59.0,83,29.92,4.3,SSE,10.4,-,N/A,Rain,Heavy Rain,150,2012-11-18 06:50:00
8:50 AM,64.4,57.2,77,29.92,6.2,ESE,15.0,-,N/A,,Drizzle,120,2012-11-18 07:50:00
9:50 AM,66.2,59.0,78,29.89,6.2,East,12.7,-,N/A,Thunderstorm,Heavy Drizzle,100,2012-11-18 08:50:00
10:07 AM,60.8,57.2,88,29.92,1.2,NW,21.9,34.5,N/A,Rain-Thunderstorm,Heavy Thunderstorms and Rain,320,2012-11-18 09:07:00
10:25 AM,60.8,59.0,94,29.92,6.2,North,12.7,26.5,N/A,,Drizzle,360,2012-11-18 09:25:00
10:50 AM,60.8,59.0,94,29.92,6.2,NNE,12.7,-,N/A,,Drizzle,20,2012-11-18 09:50:00
11:50 AM,66.2,57.2,73,29.89,6.2,SSW,11.5,-,N/A,,Mostly Cloudy,200,2012-11-18 10:50:00
12:50 PM,68.0,59.0,73,29.89,6.2,South,13.8,-,N/A,,Light Drizzle,190,2012-11-18 11:50:00
1:50 PM,68.0,59.0,73,29.86,6.2,West,12.7,-,N/A,,Mostly Cloudy,260,2012-11-18 12:50:00
2:50 PM,62.6,60.8,94,29.86,6.2,North,10.4,-,N/A,,Mostly Cloudy,350,2012-11-18 13:50:00
3:50 PM,64.4,60.8,88,29.86,1.9,ENE,2.3,-,N/A,Rain,Heavy Rain,60,2012-11-18 14:50:00
4:21 PM,62.6,59.0,88,29.86,6.2,North,3.5,-,N/A,,Mostly Cloudy,360,2012-11-18 15:21:00
4:50 PM,64.4,60.8,88,29.86,6.2,NE,6.9,-,N/A,,Mostly Cloudy,50,2012-11-18 15:50:00
5:50 PM,66.2,59.0,78,29.83,6.2,SW,6.9,-,N/A,,Mostly Cloudy,230,2012-11-18 16:50:00
6:50 PM,69.8,59.0,68,29.86,6.2,SW,12.7,-,N/A,,Mostly Cloudy,230,2012-11-18 17:50:00
7:50 PM,68.0,59.0,73,29.86,6.2,SSW,15.0,-,N/A,Rain,Rain,200,2012-11-18 18:50:00
8:19 PM,68.0,57.2,68,29.86,6.2,SSW,19.6,-,N/A,Thunderstorm,Mostly Cloudy,200,2012-11-18 19:19:00
8:50 PM,66.2,59.0,78,29.89,6.2,West,11.5,-,N/A,Thunderstorm,Mostly Cloudy,260,2012-11-18 19:50:00
9:21 PM,64.4,57.2,77,29.86,3.7,SW,18.4,33.4,N/A,Rain-Thunderstorm,Rain,220,2012-11-18 20:21:00
9:50 PM,62.6,57.2,82,29.86,5.0,SSW,8.1,-,N/A,Rain-Thunderstorm,Rain,210,2012-11-18 20:50:00
10:50 PM,66.2,60.8,83,29.86,6.2,South,12.7,-,N/A,Rain-Thunderstorm,Rain,190,2012-11-18 21:50:00